sat.trackr.live / text

‹ back to catalog

STARLINK-5674

NORAD 55465 · 2023-015S

PAYLOAD ACTIVE UNKNOWN

§ Identity

Operator
Country
US
Launch date
2023-02-02
Launch site
AFETR
Launch vehicle
Mass (kg)
RCS (m²)

Purposes: comms

External: N2YO · Heavens-Above · Gunter

§ Orbital elements

Epoch: 2026-05-24T17:34:22.527552Z

Period
94.27 min
Inclination
43.0032°
Eccentricity
0.0001304
Mean motion
15.27575993 rev/d
Perigee alt
482.2 km
Apogee alt
484.0 km
Semi-major
6,861.2 km
B*
-9.7277e-5
RAAN
259.1068°
Arg perigee
267.9152°
Mean anomaly
92.1550°
Rev number
18,235

§ Raw data

STARLINK-56741 55465U 23015S   26144.73220518 -.00002938  00000+0 -97277-4 0  99902 55465  43.0032 259.1068 0001304 267.9152  92.1550 15.27575993182354

JSON: /api/v1/satellites/55465 · /tle

For live sub-satellite position, see the globe view (requires WebGL).

§ Visibility from observer

Set your observer location to see the next 7 days of passes ≥ 10°. The values pass through the URL so the page stays shareable.

No JS? Fill the form by hand. The geolocation button needs JavaScript.